Location: Cazarilh
(42.9578°N, 0.5819°E)
Time: 05:09:37
(UTC+00:00)

Okean-O - Pass Details

Date: 11 December 2019
Orbit: 639 x 641 km, 98.2° (Epoch: 21 January)

Event Time Altitude Azimuth Distance (km) Brightness Sun altitude
Rises 06:34:38 0° 15° (NNE) 2,955 6.0 -7.9°
Reaches altitude 10° 06:36:52 10° 18° (NNE) 2,040 5.2 -7.5°
Maximum altitude 06:41:17 68° 102° (ESE) 693 3.1 -6.8°
Drops below altitude 10° 06:45:41 10° 185° (S) 2,023 5.5 -6.1°
Sets 06:47:53 0° 188° (S) 2,927 6.3 -5.7°
